Address 0x34038f7d5bc872beb317df9a9ca0e3257c7e98b3 9

 
Txn Hash Method
Block
From
To
Value [Txn Fee]
0x17047c4ce88acdc9b73f4ed49da09d69f5db0d0b26093a191bf43435684c2a2eDeposit490252402022-12-26 15:30:4732 days 11 hrs ago0x34038f7d5bc872beb317df9a9ca0e3257c7e98b3OUT 0x4c51ff6af2efc679a08c5a7377bce18050f86ccb0 ETH0.00003198
0xebc383aa28f214ad23eda8f5cf55c71e808b4853ec721840bf355c50423b3054Approve490247542022-12-26 15:28:2232 days 11 hrs ago0x34038f7d5bc872beb317df9a9ca0e3257c7e98b3OUT 0x82af49447d8a07e3bd95bd0d56f35241523fbab10 ETH0.00003026
0x9e884d86b4cb508905d168e5555e75bc793b7b3b3a42b77c43a45632edc32b0dTransfer490246732022-12-26 15:27:5732 days 11 hrs ago0x9223c017a39d4806d1d92c15046ae28c32c6d8e7 IN 0x34038f7d5bc872beb317df9a9ca0e3257c7e98b30.01 ETH0.00001834
0x1398f686038271d7f531dbbdbb7d75199f6b8c4412a7a475b1ef8d929db153c3Deposit490243432022-12-26 15:26:1932 days 11 hrs ago0x34038f7d5bc872beb317df9a9ca0e3257c7e98b3OUT 0x82af49447d8a07e3bd95bd0d56f35241523fbab10.09 ETH0.00002115
0x31106e5d1427226f23791d07913bce7d87e31498d2c6f2a651db4825e2614948Deposit490241422022-12-26 15:25:1532 days 11 hrs ago0x34038f7d5bc872beb317df9a9ca0e3257c7e98b3OUT 0x82af49447d8a07e3bd95bd0d56f35241523fbab10.009 ETH0.00002108
0x76b4189d55e399186c6223078712d0bbd2757fb2c217537bda25bc1188226c47Transfer490238222022-12-26 15:23:3032 days 11 hrs ago0x9223c017a39d4806d1d92c15046ae28c32c6d8e7 IN 0x34038f7d5bc872beb317df9a9ca0e3257c7e98b30.09 ETH0.00001854
0xb7fd7704f48b7480ef188e9215b81c0b1c9c28618bec7ef88390aab9809ce47f0xe8090767430422182022-12-02 17:24:2256 days 9 hrs ago0x34038f7d5bc872beb317df9a9ca0e3257c7e98b3OUT 0xcd8d2e1fa4132749220ffeec165285ee33028d590 ETH0.00014545
0xace088e312c0e0cfd53cf008403a40efb77f0d54f002abf03f0a673f874f3f270x363a115b430418502022-12-02 17:22:4256 days 9 hrs ago0x34038f7d5bc872beb317df9a9ca0e3257c7e98b3OUT 0xcd8d2e1fa4132749220ffeec165285ee33028d590 ETH0.00010913
0x3c4b204c178683db9a0efe0b893f97bcc3cc82a5dac40a0810a430bbb46e15dc0x363a115b389590622022-11-18 4:03:4970 days 22 hrs ago0x34038f7d5bc872beb317df9a9ca0e3257c7e98b3OUT 0xcd8d2e1fa4132749220ffeec165285ee33028d590 ETH0.00009992
0x2d0cce4926fef88fd1384d9398af7182619290b1526ca6b1abbcafaed48821520x363a115b389587952022-11-18 4:01:5070 days 22 hrs ago0x34038f7d5bc872beb317df9a9ca0e3257c7e98b3OUT 0xcd8d2e1fa4132749220ffeec165285ee33028d590 ETH0.00010181
0x3fd69f35d09c3ecd1f78f0d4449d41c657f936c42374d316efb47671ce5b0ee90xe8090767389567952022-11-18 3:48:2770 days 22 hrs ago0x34038f7d5bc872beb317df9a9ca0e3257c7e98b3OUT 0xcd8d2e1fa4132749220ffeec165285ee33028d590 ETH0.00015399
0x2b56d9150001fe2ad670e7a56350a8a391aec9de346f7aeca1a18ec8d128a542Deposit370055922022-11-10 19:51:3178 days 6 hrs ago0x34038f7d5bc872beb317df9a9ca0e3257c7e98b3OUT 0xcd8d2e1fa4132749220ffeec165285ee33028d590 ETH0.00011939
0x1e91a9a6ca15213b4e742138e5e7fb126d4cbcacbca91c7c3383abea5f620c9dApprove370055342022-11-10 19:51:1578 days 6 hrs ago0x34038f7d5bc872beb317df9a9ca0e3257c7e98b3OUT 0xff970a61a04b1ca14834a43f5de4533ebddb5cc80 ETH0.00004573
0x63d056c51ca67edf7ef5a40142440a207c31b9bedd1bf069d6bdeae94eeebdab0xe8090767349103512022-11-03 8:17:1785 days 18 hrs ago0x34038f7d5bc872beb317df9a9ca0e3257c7e98b3OUT 0xcd8d2e1fa4132749220ffeec165285ee33028d590 ETH0.00016404
0x87c7a3d772ac124faeeca28c5d59f918b803fdba4ad19145be2195df13b2bdfa0xe8090767349051602022-11-03 7:50:3485 days 18 hrs ago0x34038f7d5bc872beb317df9a9ca0e3257c7e98b3OUT 0xcd8d2e1fa4132749220ffeec165285ee33028d590 ETH0.00015779
0xbe5ab40ec11e1333c15aaa278ec239cb9145c17d3075c9645de2f4d2e687297aDeposit349042432022-11-03 7:46:0385 days 18 hrs ago0x34038f7d5bc872beb317df9a9ca0e3257c7e98b3OUT 0xcd8d2e1fa4132749220ffeec165285ee33028d590 ETH0.00005351
0xd2bf75fa3f75a05bf68f7a83e84e910be29065d0b5710347cd093dfcd79b9fc0Approve349041872022-11-03 7:45:4885 days 18 hrs ago0x34038f7d5bc872beb317df9a9ca0e3257c7e98b3OUT 0xff970a61a04b1ca14834a43f5de4533ebddb5cc80 ETH0.00002443
0xf28b2e16ae09ec8678f589344783d7e3de14fd04ecfbdf5956475316a76dc223Claim From Ve Un...268502322022-09-26 16:38:48123 days 10 hrs ago0x34038f7d5bc872beb317df9a9ca0e3257c7e98b3OUT 0xaf9c4f6a0ceb02d4217ff73f3c95bbc8c7320cee0 ETH0.00008337
0xdc1ffb5cb64abaea13965028637e7f7fb92ab7dfba4bf6c675601cde30e590aeStake Mlp268487002022-09-26 16:26:21123 days 10 hrs ago0x34038f7d5bc872beb317df9a9ca0e3257c7e98b3OUT 0xaf9c4f6a0ceb02d4217ff73f3c95bbc8c7320cee0 ETH0.00008233
0x9538a5edd18545945b7a7b0dbb0fd2f105df90dcba7641de70892c503c80e823Deposit266903792022-09-26 1:38:30124 days 1 hr ago0x34038f7d5bc872beb317df9a9ca0e3257c7e98b3OUT0x239e14a19dff93a17339dcc444f74406c17f8e670 ETH0.00001462
0x7136f7daea5e5cb5c2c31da7dce614e3868260f836da34ca6fc2a93015685bbdApprove266902132022-09-26 1:37:17124 days 1 hr ago0x34038f7d5bc872beb317df9a9ca0e3257c7e98b3OUT 0x8e0b8c8bb9db49a46697f3a5bb8a308e744821d20 ETH0.0000113
0xfacecac23990fe6ccbffa0c3e1cf2bfe3eb654cc8e8e066057c52bd5889ea1f5Add_liquidity266900992022-09-26 1:36:16124 days 1 hr ago0x34038f7d5bc872beb317df9a9ca0e3257c7e98b3OUT 0xf97c707024ef0dd3e77a0824555a46b622bfb5000.008 ETH0.00005279
0xfc8c834ddb4aa1affc665b65b7bd13cd800d73272e967d79def937f3427ddb38Add_liquidity266890962022-09-26 1:27:48124 days 1 hr ago0x34038f7d5bc872beb317df9a9ca0e3257c7e98b3OUT 0x25e2e8d104bc1a70492e2be32da7c1f8367f9d2c0.007 ETH0.00001201
0x330ab0449e49346280d3240450123edbbbc41a1ed84df790b72479c38f1505f6Add_liquidity266888162022-09-26 1:25:20124 days 1 hr ago0x34038f7d5bc872beb317df9a9ca0e3257c7e98b3OUT 0x25e2e8d104bc1a70492e2be32da7c1f8367f9d2c0.007 ETH0.00001222
0xaed209e7dbc5cb4e36246ad98abb02ec2ee5ad212e2dbc34b130f6765a5acca7Approve266887912022-09-26 1:25:12124 days 1 hr ago0x34038f7d5bc872beb317df9a9ca0e3257c7e98b3OUT0x2f2a2543b76a4166549f7aab2e75bef0aefc5b0f0 ETH0.00001291
[ Download CSV Export 
Latest 2 internal transactions
Parent Txn Hash Block From To Value
0xf28b2e16ae09ec8678f589344783d7e3de14fd04ecfbdf5956475316a76dc223268502322022-09-26 16:38:48123 days 10 hrs ago 0xaf9c4f6a0ceb02d4217ff73f3c95bbc8c7320cee0x34038f7d5bc872beb317df9a9ca0e3257c7e98b30.000096876718911188 ETH
0x1bc9cf79a6611e8e89088510c556ed5bbde5c2b03da3bc4619030cea6f4f19bb266886772022-09-26 1:24:21124 days 1 hr ago 0x960ea3e3c7fb317332d990873d354e18d76455900x34038f7d5bc872beb317df9a9ca0e3257c7e98b30.012369024719669907 ETH
[ Download CSV Export 
Loading

Contract Name:
0 ETH

Compiler Version
0

Optimization Enabled:
0 ETH

Other Settings:
-NA-
Block Transaction Gas Used Reward
Age Block Fee Address BC Fee Address Voting Power Jailed Incoming
Block Uncle Number Difficulty Gas Used Reward
Loading
Make sure to use the "Vote Down" button for any spammy posts, and the "Vote Up" for interesting conversations.